Date String (YYYY-MM-DD hh:mm:ss) UTC,Instrument flags,Ambient pressure (hPa),Sample flow (lpm),Bypass flow (lpm),Sample temperature (°C),Ambient temperature (°C),ASC tube jacket temperature (°C),LED temperature (°C),Box temperature (°C),Sample RH (%),Span deviation,Mass concentration (μg/m³),Mass concentration (μg/m³),Mass concentration (μg/m³)
DateTimeUTC,F1_M11,P_M11,Q1_M11,Q2_M11,T1_M11,T2_M11,T3_M11,T4_M11,T5_M11,U1_M11,ZSPAN_M11,X0_M11,X2_M11,X1_M11
2021-12-14 12:00:00,,0822.7,4.99,0.00,24.4,23.6,00.0,33.6,26.1,08.4,0001.7,0037.83,0008.46,0005.36
2021-12-14 12:01:00,,0822.8,4.99,0.00,24.4,23.6,00.0,33.6,26.1,08.4,0007.4,0037.61,0008.49,0005.35
2021-12-14 12:02:00,,0822.6,5.02,0.00,24.4,23.6,00.0,33.5,26.0,08.3,0008.0,0037.46,0008.49,0005.34
2021-12-14 12:03:00,,0822.6,5.00,0.00,24.4,23.6,00.0,33.5,26.0,08.2,0007.3,0039.69,0008.43,0005.33
2021-12-14 12:04:00,,0822.6,4.99,0.00,24.4,23.6,00.0,33.5,26.0,08.2,0011.0,0040.25,0008.36,0005.32
2021-12-14 12:05:00,,0822.6,5.00,0.00,24.4,23.6,00.0,33.5,26.1,08.2,0010.0,0040.69,0008.32,0005.30
2021-12-14 12:06:00,,0822.6,4.99,0.00,24.4,23.6,00.0,33.5,26.1,08.1,0000.5,0040.11,0008.26,0005.29
2021-12-14 12:07:00,,0822.7,5.00,0.00,24.4,23.7,00.0,33.5,26.2,08.0,0001.4,0039.05,0008.25,0005.24
2021-12-14 12:08:00,,0822.6,5.01,0.00,24.4,23.7,00.0,33.5,26.2,08.1,0003.9,0039.28,0008.20,0005.22
2021-12-14 12:09:00,,0822.6,4.99,0.00,24.4,23.7,00.0,33.5,26.2,08.1,-000.8,0040.31,0008.14,0005.20
2021-12-14 12:10:00,,0822.5,5.01,0.00,24.5,23.7,00.0,33.5,26.2,08.1,-001.4,0036.54,0008.00,0005.16
2021-12-14 12:11:00,,0822.5,4.98,0.00,24.5,23.7,00.0,33.5,26.3,08.1,-000.7,0034.69,0007.96,0005.15
2021-12-14 12:12:00,,0822.6,5.01,0.00,24.5,23.7,00.0,33.5,26.2,08.1,-001.0,0034.54,0007.84,0005.13
2021-12-14 12:13:00,,0822.6,4.99,0.00,24.5,23.7,00.0,33.5,26.2,08.1,0000.3,0034.77,0007.83,0005.14
2021-12-14 12:14:00,,0822.6,5.01,0.00,24.5,23.7,00.0,33.5,26.2,08.2,0000.9,0033.53,0007.91,0005.16
2021-12-14 12:15:00,,0822.4,4.99,0.00,24.4,23.6,00.0,33.5,26.1,08.2,0001.4,0032.82,0007.99,0005.20
2021-12-14 12:16:00,,0822.3,5.01,0.00,24.4,23.6,00.0,33.5,26.1,08.1,0001.8,0031.88,0008.05,0005.22
2021-12-14 12:17:00,,0822.2,4.99,0.00,24.4,23.6,00.0,33.4,26.1,08.0,0001.8,0031.60,0008.12,0005.24
2021-12-14 12:18:00,,0822.2,4.99,0.00,24.4,23.6,00.0,33.4,26.1,07.7,0000.4,0031.12,0008.08,0005.26
2021-12-14 12:19:00,,0822.4,5.01,0.00,24.4,23.6,00.0,33.4,26.2,07.5,-000.0,0030.18,0007.94,0005.20
2021-12-14 12:20:00,,0822.4,4.99,0.00,24.4,23.6,00.0,33.4,26.2,07.6,0001.3,0027.18,0007.75,0005.14
2021-12-14 12:21:00,,0822.4,5.02,0.00,24.4,23.6,00.0,33.4,26.0,07.8,0002.4,0027.22,0007.70,0005.12
2021-12-14 12:22:00,,0822.4,4.98,0.00,24.4,23.5,00.0,33.4,26.0,07.7,0003.1,0027.99,0007.64,0005.09
2021-12-14 12:23:00,,0822.4,5.01,0.00,24.3,23.5,00.0,33.4,26.0,07.8,0003.9,0028.08,0007.64,0005.08
2021-12-14 12:24:00,,0822.4,5.00,0.00,24.3,23.5,00.0,33.4,26.0,08.0,0002.4,0028.03,0007.67,0005.08
2021-12-14 12:25:00,,0822.4,5.00,0.00,24.3,23.5,00.0,33.4,26.0,08.3,0002.0,0027.51,0007.65,0005.10
2021-12-14 12:26:00,,0822.4,5.01,0.00,24.3,23.5,00.0,33.4,26.1,08.3,0001.8,0027.69,0007.65,0005.10
2021-12-14 12:27:00,,0822.4,4.99,0.00,24.3,23.6,00.0,33.4,26.1,08.1,0001.1,0028.28,0007.60,0005.11
2021-12-14 12:28:00,,0822.5,5.00,0.00,24.4,23.6,00.0,33.4,26.1,08.1,0001.5,0029.48,0007.61,0005.10
2021-12-14 12:29:00,,0822.4,5.00,0.00,24.4,23.6,00.0,33.4,26.1,08.1,0002.6,0029.89,0007.63,0005.11
2021-12-14 12:30:00,,0822.4,5.01,0.00,24.4,23.6,00.0,33.4,26.1,08.0,0003.4,0030.25,0007.76,0005.19
2021-12-14 12:31:00,,0822.4,4.99,0.00,24.4,23.6,00.0,33.4,26.1,08.0,0003.3,0030.72,0007.90,0005.24
2021-12-14 12:32:00,,0822.3,5.00,0.00,24.4,23.6,00.0,33.4,26.1,08.0,0003.7,0031.06,0007.99,0005.29
2021-12-14 12:33:00,,0822.1,4.99,0.00,24.4,23.6,00.0,33.4,26.1,07.5,0002.7,0029.37,0007.86,0005.22
2021-12-14 12:34:00,,0822.1,5.01,0.00,24.4,23.6,00.0,33.4,26.1,07.6,0003.5,0028.26,0007.76,0005.20
2021-12-14 12:35:00,,0822.0,5.00,0.00,24.4,23.6,00.0,33.4,26.1,07.4,0003.6,0026.09,0007.35,0005.02
2021-12-14 12:36:00,,0821.9,5.00,0.00,24.4,23.6,00.0,33.4,26.1,07.4,0003.7,0024.03,0006.94,0004.78
2021-12-14 12:37:00,,0822.0,4.98,0.00,24.4,23.7,00.0,33.4,26.2,07.3,0003.1,0022.59,0006.55,0004.56
2021-12-14 12:38:00,,0822.1,5.01,0.00,24.4,23.7,00.0,33.4,26.2,07.3,0003.7,0021.76,0006.20,0004.37
2021-12-14 12:39:00,,0822.1,4.99,0.00,24.4,23.6,00.0,33.4,26.1,07.7,0000.0,0019.52,0006.02,0004.27
2021-12-14 12:40:00,,0822.1,5.00,0.00,24.4,23.6,00.0,33.4,26.1,07.8,0000.0,0018.86,0005.94,0004.26
2021-12-14 12:41:00,,0822.1,5.00,0.00,24.4,23.6,00.0,33.4,26.1,07.6,0000.0,0017.33,0005.72,0004.16
2021-12-14 12:42:00,,0822.0,5.00,0.00,24.4,23.6,00.0,33.4,26.1,07.5,0000.0,0015.61,0005.50,0004.06
2021-12-14 12:43:00,,0822.0,4.99,0.00,24.4,23.6,00.0,33.4,26.2,07.5,0000.0,0014.46,0005.43,0004.00
2021-12-14 12:44:00,,0822.0,5.01,0.00,24.4,23.6,00.0,33.4,26.2,07.5,0000.0,0014.05,0005.46,0003.99
2021-12-14 12:45:00,,0822.2,5.01,0.00,24.4,23.6,00.0,33.4,26.1,07.5,0000.0,0013.89,0005.49,0004.01
2021-12-14 12:46:00,,0822.2,5.00,0.00,24.4,23.6,00.0,33.4,26.1,07.5,0000.0,0013.97,0005.59,0004.07
2021-12-14 12:47:00,,0822.2,4.99,0.00,24.4,23.6,00.0,33.4,26.1,07.5,0000.0,0014.81,0005.74,0004.18
2021-12-14 12:48:00,,0822.0,5.01,0.00,24.4,23.6,00.0,33.4,26.1,07.4,0000.0,0015.71,0005.80,0004.23
2021-12-14 12:49:00,,0821.9,4.99,0.00,24.4,23.6,00.0,33.4,26.1,07.5,0000.0,0016.66,0005.80,0004.22
2021-12-14 12:50:00,,0821.9,5.01,0.00,24.4,23.5,00.0,33.4,26.0,07.5,0000.0,0016.69,0005.61,0004.09
2021-12-14 12:51:00,,0822.0,4.98,0.00,24.4,23.5,00.0,33.4,26.0,07.5,0000.0,0015.50,0005.28,0003.88
2021-12-14 12:52:00,,0822.0,5.01,0.00,24.4,23.5,00.0,33.4,26.0,07.4,0000.0,0014.85,0005.05,0003.69
2021-12-14 12:53:00,,0822.0,5.01,0.00,24.4,23.5,00.0,33.4,26.1,07.4,0000.0,0014.68,0004.97,0003.60
2021-12-14 12:54:00,,0822.0,4.99,0.00,24.4,23.5,00.0,33.4,26.1,07.4,0000.0,0014.86,0004.84,0003.51
2021-12-14 12:55:00,,0821.9,4.99,0.00,24.4,23.6,00.0,33.4,26.1,07.4,0000.0,0014.47,0004.66,0003.44
2021-12-14 12:56:00,,0821.9,5.02,0.00,24.4,23.6,00.0,33.4,26.1,07.4,0000.0,0014.07,0004.54,0003.37
2021-12-14 12:57:00,,0821.8,5.00,0.00,24.4,23.6,00.0,33.4,26.1,07.4,0000.0,0014.14,0004.57,0003.35
2021-12-14 12:58:00,,0822.0,5.01,0.00,24.4,23.6,00.0,33.4,26.1,07.4,0000.0,0014.55,0004.61,0003.35
2021-12-14 12:59:00,,0821.9,5.00,0.00,24.4,23.6,00.0,33.4,26.2,07.4,0000.0,0014.55,0004.73,0003.42
